RH
44 44 43 43 42 40 38 36 33 31 29 27 23 21 17 14 13 12 12 11 11 10 10 10 9 9 8 8 8 8 8 8 9 9 11 13 12 12 12 12 13 12 12 12 12 12 14 13 12 12 11 10 8 10 13 14 14 14 13 13 11 11 10 10 14 15 13 13 13 13 14 13 13 23 29 28 28 29 29 29 28 27 28 28 29 31 32 35
45 45 45 45 44 42 41 38 37 34 31 28 24 23 20 16 13 12 12 12 11 11 10 10 10 9 9 8 8 8 7 7 7 7 10 11 11 12 12 12 12 12 12 12 11 11 13 13 12 12 11 11 10 11 13 14 15 14 14 13 11 11 10 13 16 15 14 14 14 13 14 13 12 21 27 25 27 29 26 27 28 28 29 30 31 32 32 33
44 46 47 47 46 45 43 41 39 36 34 31 26 24 23 18 15 13 12 12 12 12 11 10 10 10 9 9 8 8 8 7 7 7 8 7 8 10 11 12 12 12 12 11 11 11 13 13 12 12 11 11 13 13 13 14 15 14 13 13 11 11 11 15 17 15 16 15 14 14 14 13 12 15 20 22 26 27 24 25 26 27 29 33 35 33 32 33
43 44 48 48 47 47 47 44 42 38 36 34 30 27 25 21 17 14 13 13 12 12 12 11 10 10 9 9 9 8 8 8 7 6 7 7 7 8 9 11 11 12 12 11 12 12 14 13 12 12 11 12 15 14 13 14 15 14 14 12 10 11 13 16 18 17 17 15 15 14 13 13 12 12 17 23 24 24 24 23 22 23 24 29 34 33 32 33
43 44 47 48 48 48 49 47 45 43 39 37 33 30 29 25 19 15 14 14 13 13 12 12 11 10 10 9 9 8 9 9 8 7 9 9 8 8 9 10 11 12 12 11 12 14 16 14 11 11 11 13 15 14 14 14 14 14 13 13 11 11 13 17 18 17 17 16 15 15 14 13 13 13 19 24 19 17 21 20 19 21 21 23 28 30 31 34
41 43 46 49 49 49 49 48 47 46 43 40 36 34 33 28 21 16 15 15 14 13 13 12 11 11 11 10 10 9 9 9 10 12 13 12 10 9 8 9 11 11 11 12 13 15 17 15 12 12 11 13 15 14 14 15 13 13 13 12 12 12 14 18 19 18 17 16 15 15 15 13 13 12 16 23 18 14 17 17 18 21 21 22 23 25 29 32
41 42 45 49 49 49 49 49 47 46 44 42 39 36 35 30 23 17 16 16 15 14 13 13 12 12 11 11 10 10 11 9 11 15 16 15 11 9 7 7 11 11 11 12 13 15 16 16 14 13 12 12 14 14 14 15 13 12 12 12 12 12 16 19 19 19 17 16 16 15 15 14 14 12 14 20 17 13 14 15 18 19 20 21 21 23 26 30
42 44 47 49 48 49 49 49 48 47 46 43 41 39 37 34 25 19 18 17 16 15 14 14 13 13 12 11 11 12 12 10 10 11 12 12 12 10 7 7 10 11 11 11 13 15 16 16 15 13 12 11 13 14 14 14 13 13 12 12 12 14 17 19 18 19 17 16 15 15 15 14 14 13 13 15 13 13 12 13 17 18 19 20 21 23 24 30
44 46 48 49 48 49 50 49 48 48 47 46 43 41 39 35 26 21 20 19 18 17 16 15 14 14 13 12 13 13 12 11 11 10 9 10 11 11 9 8 10 11 10 11 14 16 16 15 14 13 12 12 13 14 14 14 13 12 11 11 12 15 18 18 17 18 17 16 15 14 14 14 14 13 13 13 12 13 12 12 16 18 19 20 21 22 23 30
45 47 48 48 48 50 49 48 49 48 47 47 45 42 40 36 27 22 22 20 19 18 18 17 16 15 15 15 16 15 13 12 12 11 11 10 9 10 10 10 10 10 9 12 16 16 15 14 14 15 14 13 13 14 14 13 12 12 12 11 12 16 19 18 17 17 17 15 15 14 14 14 14 13 13 13 13 13 13 12 16 19 20 21 22 22 24 30
46 48 48 48 48 48 48 47 48 48 47 47 45 43 41 37 29 24 23 22 21 20 19 18 17 16 16 17 18 16 14 13 13 12 12 13 11 10 11 12 10 8 9 13 17 16 15 15 14 16 16 15 14 14 14 13 12 11 11 11 12 15 19 18 17 17 17 15 15 14 14 14 13 13 12 13 13 13 14 13 16 19 20 22 23 23 27 30
47 48 46 46 46 46 46 46 47 47 46 45 44 44 42 36 31 26 25 25 23 22 21 20 19 18 19 20 19 16 15 15 14 15 16 15 14 12 12 14 12 9 9 12 16 17 17 15 14 16 17 17 15 14 14 14 12 11 10 11 12 13 16 17 17 17 16 14 14 14 14 14 13 13 11 12 12 13 14 13 16 19 20 23 23 24 29 30
46 46 43 43 43 43 44 44 44 45 45 44 42 43 40 33 31 28 26 26 25 24 22 21 21 21 26 26 19 16 16 16 15 17 18 16 15 16 15 17 15 12 11 12 15 18 18 15 15 16 18 18 17 15 15 14 12 10 10 11 13 14 15 17 16 17 16 14 14 14 14 13 13 12 11 12 12 12 12 12 17 18 18 21 20 23 30 29
46 44 42 42 42 42 42 42 43 44 43 42 40 39 36 30 30 29 29 28 27 26 25 25 24 26 33 27 17 18 17 15 15 15 16 15 15 18 19 19 17 15 15 14 14 17 17 16 16 17 18 19 20 19 17 15 13 12 11 11 13 16 16 16 17 17 15 15 14 14 14 13 12 12 11 15 18 15 12 15 22 22 18 20 19 23 30 31
45 43 41 41 41 40 41 42 42 44 43 40 39 36 33 30 30 30 31 30 29 28 27 30 29 33 37 27 17 19 18 17 16 14 14 14 14 17 21 21 19 18 17 15 13 15 17 17 17 18 18 18 21 22 19 17 16 14 13 13 14 15 16 16 18 18 15 14 14 14 14 13 12 12 10 17 28 25 18 21 27 25 22 23 24 26 32 34
43 40 38 39 39 39 40 41 40 42 42 40 36 33 31 30 31 31 31 31 30 29 30 34 34 37 38 27 20 20 19 18 17 15 14 13 13 16 21 23 22 20 18 16 14 15 16 17 18 18 18 18 20 22 20 19 19 17 15 15 15 14 15 16 17 17 15 14 14 14 14 13 12 13 11 16 31 32 25 26 27 28 27 27 29 29 32 34
42 40 40 40 40 41 42 40 40 41 41 38 32 29 30 31 31 31 31 31 31 34 37 39 40 41 35 24 22 22 20 19 19 17 15 13 13 15 20 24 24 22 19 17 16 16 17 17 18 17 17 19 20 22 22 22 21 19 17 16 15 14 14 15 16 16 16 14 14 14 14 13 12 13 12 15 29 34 29 27 30 31 30 29 31 31 33 33
42 42 42 42 43 44 43 42 42 42 42 37 28 26 29 31 31 31 30 31 36 42 43 44 43 38 29 23 21 21 20 21 20 18 15 14 14 14 19 24 23 22 22 20 19 18 18 19 19 18 18 20 22 24 25 23 20 19 17 16 15 15 15 15 15 16 16 14 15 15 14 14 13 14 13 15 26 34 30 28 31 33 32 32 32 33 33 33
44 44 45 45 47 46 45 44 43 42 39 33 26 27 29 30 32 29 27 32 38 39 36 39 37 27 23 24 22 19 19 19 19 18 16 15 16 16 19 23 24 24 22 21 20 20 19 19 20 19 20 21 22 23 23 20 17 17 16 15 14 13 14 15 15 16 16 16 16 15 15 15 14 14 14 17 26 33 32 31 33 33 33 32 32 34 33 35
47 47 48 48 49 48 45 43 40 39 37 29 25 28 29 32 35 34 33 35 32 27 25 28 29 22 20 22 22 20 18 17 18 18 17 17 18 20 22 24 26 25 22 20 21 20 20 20 20 20 19 20 20 21 21 20 17 16 16 15 14 13 13 14 15 16 16 16 16 17 16 15 15 15 19 23 26 29 31 32 33 33 32 32 32 34 35 39
49 48 49 51 52 49 45 42 39 38 33 25 21 23 26 30 34 34 35 33 25 22 23 22 23 21 18 18 20 20 18 18 18 18 18 17 20 26 27 27 26 25 22 20 21 21 19 20 21 20 18 17 20 24 24 21 18 17 16 14 14 14 13 14 15 17 17 16 17 18 16 15 17 19 23 25 24 27 30 31 33 33 32 32 32 34 36 41
51 49 49 54 57 51 45 40 35 31 26 21 20 24 30 32 33 33 34 33 27 24 23 21 21 21 17 16 17 18 20 20 19 17 18 19 22 28 30 28 26 25 23 21 21 21 21 21 21 21 21 21 23 26 25 22 19 17 16 15 14 14 13 15 17 18 17 16 17 18 16 17 19 21 24 26 26 30 33 32 33 34 34 34 34 35 37 40
51 50 50 54 56 53 47 37 27 25 23 20 21 27 34 36 36 37 37 35 30 24 22 22 23 22 20 18 18 19 21 23 22 18 17 20 23 27 30 28 25 24 23 21 20 22 22 21 21 22 25 26 26 26 25 22 20 18 18 17 16 15 14 15 17 19 19 18 18 18 18 20 20 21 25 29 32 34 34 33 33 34 34 35 37 37 38 40
52 52 52 54 55 54 48 34 26 27 24 22 26 32 38 39 38 39 38 35 30 26 24 22 20 21 22 22 20 20 22 24 24 21 18 21 24 27 29 27 25 25 24 22 20 21 21 20 23 25 27 26 25 25 24 21 20 20 21 18 17 16 14 15 18 19 20 20 20 18 18 21 22 24 26 28 32 34 33 33 33 34 34 35 37 38 39 40
55 54 53 55 55 54 46 34 30 32 28 29 36 42 45 45 43 43 42 37 32 29 27 25 23 23 25 25 21 21 24 25 24 22 20 22 24 26 28 27 26 26 26 27 25 25 24 23 25 26 26 25 23 24 23 20 19 21 22 19 18 17 15 17 19 19 19 19 20 18 18 24 25 26 29 29 31 33 33 33 34 36 36 37 38 38 39 39
56 55 54 56 56 52 44 37 38 41 39 41 45 48 51 50 49 49 48 44 38 32 31 30 27 27 28 26 24 24 27 26 24 24 23 23 25 26 27 27 27 27 28 30 30 29 29 26 25 24 24 24 22 22 23 22 20 20 22 21 18 17 18 19 19 18 19 20 22 20 19 25 28 27 30 32 32 33 33 33 34 36 37 38 40 40 39 39
59 57 56 57 56 54 48 41 41 43 46 50 50 50 53 54 55 56 51 44 40 36 34 34 32 32 31 28 28 27 26 26 26 26 24 24 26 26 28 28 27 28 29 31 31 31 30 27 25 24 25 25 24 23 23 22 20 19 22 21 19 18 20 21 19 18 20 22 24 23 20 24 29 31 32 35 35 33 33 34 34 35 36 37 40 41 40 40
61 60 60 61 60 58 51 42 38 41 49 54 52 51 54 57 60 62 55 43 43 44 38 35 36 37 34 30 29 25 25 29 29 27 25 24 26 26 26 27 25 26 28 28 30 30 29 27 25 24 25 25 24 23 24 23 20 20 22 20 18 18 20 21 20 20 22 24 24 24 23 23 29 35 36 37 38 35 35 35 35 36 36 37 39 41 41 40
63 62 63 64 62 58 48 39 38 44 53 55 53 52 54 61 63 61 56 48 50 51 42 37 37 37 38 33 29 26 27 32 30 29 28 26 26 26 25 27 26 26 26 26 26 26 25 24 24 23 24 24 24 23 24 22 21 21 21 21 20 20 21 21 21 22 24 25 24 25 25 22 28 39 40 39 40 38 37 36 37 38 38 39 40 41 42 42
64 64 65 63 59 54 47 40 38 43 50 51 53 55 58 64 62 59 57 51 55 58 46 39 37 39 41 35 30 29 30 34 34 33 32 28 27 26 25 28 30 30 29 27 27 27 25 25 25 24 24 24 25 25 24 22 21 20 19 20 20 22 23 23 23 24 24 25 24 25 27 24 26 40 44 42 43 42 39 38 39 39 39 41 42 42 43 43
64 65 66 62 57 53 48 44 39 40 44 45 52 61 65 66 61 61 59 49 56 66 53 41 39 41 43 36 31 31 31 37 39 36 34 31 29 29 28 31 34 36 35 32 30 29 27 27 26 24 25 25 25 26 24 23 22 20 18 19 21 24 25 25 25 26 26 26 24 24 28 24 26 40 47 44 45 44 41 40 41 40 41 42 41 42 43 43
67 66 64 59 54 48 47 47 45 45 45 44 55 67 68 65 61 60 56 50 62 74 62 49 44 43 46 41 33 33 36 40 41 37 34 31 30 29 29 30 33 38 41 37 34 32 29 29 27 24 25 25 25 27 27 25 24 23 21 20 22 25 27 27 27 27 27 27 26 26 26 24 29 41 45 44 44 43 42 42 42 42 42 42 41 42 43 43
70 66 60 55 49 44 43 45 46 48 46 46 60 71 67 64 62 57 52 53 68 77 69 58 49 44 47 45 38 40 44 45 45 42 38 35 34 32 30 30 29 33 37 36 34 34 32 32 30 27 26 25 25 27 27 27 26 24 23 22 22 24 28 29 29 30 30 28 27 26 25 28 36 42 42 43 45 44 44 44 43 43 43 43 43 44 45 46
70 64 57 53 48 45 45 44 45 46 46 50 64 71 66 63 61 57 54 55 64 74 72 62 52 46 46 45 43 44 46 45 46 47 46 43 42 39 35 33 31 32 35 35 34 33 33 33 31 28 26 25 25 26 25 26 26 24 24 23 22 23 25 27 28 30 30 29 28 25 25 32 41 45 43 43 45 46 46 46 44 44 44 45 46 48 49 49
67 62 59 55 49 47 46 43 44 44 46 55 64 66 64 61 59 59 62 62 65 70 71 63 55 50 47 46 44 42 40 40 42 46 48 46 44 42 38 35 34 34 35 35 35 33 31 30 28 26 25 24 25 26 24 24 26 26 24 24 24 22 22 25 26 28 28 26 27 31 38 44 46 47 44 43 46 47 47 47 46 46 47 48 49 51 52 52
66 63 62 57 53 52 45 40 41 42 46 57 63 63 62 57 55 59 63 66 67 66 67 68 62 54 52 49 46 42 39 39 41 43 46 46 44 44 42 40 38 37 35 35 36 34 31 30 29 26 25 25 27 28 26 25 27 28 26 26 25 23 24 26 26 28 27 24 30 42 51 53 49 48 46 45 48 48 47 47 47 49 51 51 52 54 55 56
69 68 65 61 60 54 43 37 38 41 48 57 61 61 58 50 50 59 64 64 64 61 65 75 71 60 56 53 49 46 42 41 43 44 46 47 48 48 46 46 44 40 38 36 36 35 31 32 32 28 26 28 31 32 30 28 29 29 28 26 25 26 27 27 27 29 26 26 39 52 58 58 53 51 49 48 48 48 47 47 48 52 53 53 55 57 57 58
73 76 73 69 66 55 41 37 37 41 50 59 61 60 55 47 47 59 67 65 61 59 65 76 75 64 60 58 53 47 44 45 46 46 47 49 52 51 48 50 48 44 42 39 39 38 33 33 34 31 29 31 34 35 34 33 32 31 30 28 28 29 29 28 29 30 27 31 46 57 61 59 51 48 50 48 47 48 49 48 51 54 54 54 57 58 58 58
78 82 80 74 68 55 43 38 38 43 53 62 63 59 53 48 48 60 71 66 59 61 70 77 75 67 61 59 55 48 45 48 48 48 50 51 54 54 52 52 50 46 44 42 43 43 38 36 36 33 32 35 36 36 36 35 33 32 33 32 32 32 30 29 30 29 29 34 45 59 65 55 42 43 48 48 48 50 50 50 51 54 55 56 57 58 57 56
81 82 78 72 65 54 43 40 43 49 54 58 60 57 52 50 54 66 72 63 57 65 75 77 73 68 63 58 54 50 48 50 51 53 55 54 57 57 54 54 51 47 46 44 46 48 43 41 39 35 34 36 38 38 37 37 34 33 35 34 34 34 31 31 32 30 31 33 40 57 61 47 38 43 46 46 50 51 49 50 52 54 57 57 57 57 57 55
81 77 73 74 66 52 44 47 52 53 54 54 54 54 51 53 65 75 69 61 61 69 74 73 70 67 64 59 54 51 52 56 57 59 59 57 59 58 54 53 52 47 45 44 47 49 46 43 42 39 37 38 41 42 42 40 37 35 35 34 34 35 33 33 34 33 31 32 37 45 44 39 42 47 46 46 51 52 50 53 57 58 59 58 57 57 56 56
78 74 73 75 66 52 50 55 56 54 54 51 50 51 51 56 72 76 66 64 71 74 74 72 68 65 62 59 56 55 56 59 60 63 62 58 60 60 54 52 50 44 43 44 47 51 51 46 42 42 43 42 42 43 43 43 42 40 38 38 36 35 35 34 35 36 34 35 37 36 34 41 49 50 49 51 53 54 55 58 62 62 61 59 58 58 58 59
75 75 77 75 64 57 58 57 54 56 56 51 49 50 50 59 74 74 67 72 76 74 72 70 66 64 60 57 58 58 57 57 58 61 62 60 60 61 57 53 49 43 42 44 45 50 53 48 43 45 47 46 42 42 43 43 44 43 44 45 41 38 38 37 38 40 39 39 38 33 36 50 55 53 54 57 58 60 60 61 63 64 63 62 61 60 62 63
74 77 79 73 65 64 64 57 55 57 56 54 55 55 54 63 76 73 68 73 74 70 69 66 63 63 63 60 59 57 55 55 57 59 62 62 60 61 60 56 49 45 44 43 41 44 46 44 43 46 51 53 50 47 45 43 44 47 49 49 46 42 41 41 42 42 42 44 42 35 42 56 60 58 58 59 60 63 61 61 63 64 65 64 63 63 64 66
77 83 81 73 68 68 65 61 60 59 59 61 65 62 59 67 77 74 69 71 70 67 68 67 64 65 65 63 60 57 54 55 59 62 63 63 62 62 62 59 55 54 51 44 40 42 45 47 43 41 45 52 52 49 48 47 47 49 53 54 52 49 46 45 43 40 42 50 47 41 49 60 62 61 61 60 61 63 64 64 64 64 65 65 65 65 65 65
80 89 85 75 71 68 66 66 65 64 64 65 65 61 62 71 78 73 70 71 69 67 68 68 67 67 66 64 61 59 58 57 59 62 63 64 64 63 62 62 61 60 56 48 43 43 48 53 50 44 45 47 48 51 54 54 53 54 57 59 61 60 56 50 45 41 43 50 51 49 55 63 64 63 63 62 62 67 72 72 67 66 66 67 66 66 67 67
80 90 88 80 73 68 66 67 66 66 67 65 61 59 65 78 80 71 68 69 67 65 65 65 67 67 67 67 64 61 62 61 60 62 63 63 64 63 62 62 64 63 59 54 51 51 52 55 55 54 55 54 55 59 60 59 62 63 63 64 65 65 61 53 48 47 46 46 50 55 59 63 65 64 63 65 67 73 76 74 70 69 69 69 68 68 70 71
80 89 91 86 80 72 68 67 65 66 67 68 65 62 71 82 80 72 68 66 64 62 62 62 64 65 67 68 67 64 64 65 64 65 65 62 63 63 61 61 64 66 63 60 58 57 56 59 60 57 58 58 59 62 61 61 65 67 67 68 67 67 65 60 59 57 51 46 49 56 60 61 64 64 64 68 75 80 80 78 75 72 70 70 71 72 75 76
82 88 91 91 89 80 72 69 68 66 68 72 69 66 76 85 79 73 70 66 65 63 62 64 64 63 65 65 66 67 67 67 66 66 66 63 62 63 62 61 63 64 65 66 65 62 61 65 64 59 58 58 60 63 64 64 65 66 68 68 68 70 69 67 67 65 59 55 55 57 60 62 64 65 64 70 78 82 81 81 78 73 71 72 73 74 75 76
86 91 92 94 95 87 77 73 72 68 70 74 70 67 79 85 78 73 70 67 66 63 62 64 62 59 60 60 63 66 67 67 67 65 65 64 62 62 61 61 62 62 65 69 67 64 64 69 70 64 61 63 64 64 65 65 66 67 69 68 68 70 71 68 68 68 65 63 61 60 63 66 66 64 65 70 75 76 79 80 76 74 74 73 73 75 76 75
90 97 97 97 96 87 79 76 73 69 70 73 68 67 79 85 77 73 70 65 66 65 63 64 61 57 56 57 59 61 62 65 66 65 65 64 63 62 61 60 60 61 66 69 70 67 65 71 74 68 66 72 72 67 67 68 65 65 69 71 69 70 71 70 70 69 68 67 66 65 65 68 68 66 67 71 72 74 81 80 75 76 79 75 74 77 78 76
92 97 98 99 95 85 79 76 71 68 71 73 68 66 77 82 75 72 71 65 64 64 61 60 59 57 55 53 54 56 59 64 66 66 67 66 65 65 64 63 61 60 62 64 66 66 63 66 70 67 70 80 77 70 73 72 65 64 68 70 69 69 70 70 70 71 71 70 69 68 68 70 71 69 69 73 75 80 86 84 79 79 80 78 77 77 76 75